Location: Fort Worth, Tx
(32.7431°N, 97.3695°W)
Time: 13:49:07
(UTC-05:00)

ISS - Visible Passes

Search period start: 06 December 2019 00:00
Search period end: 16 December 2019 00:00
Orbit: 411 x 421 km, 51.6° (Epoch: 07 December)

Date Brightness Start Highest point End Pass type
(mag) Time Alt. Az. Time Alt. Az. Time Alt. Az.
07 Dec -1.5 19:27:49 10° N 19:28:44 12° NNE 19:28:44 12° NNE visible
08 Dec -1.6 20:14:39 10° NW 20:15:47 19° NNW 20:15:47 19° NNW visible
09 Dec -2.9 19:26:25 10° NNW 19:29:25 30° NE 19:30:10 26° ENE visible
10 Dec -2.4 20:14:28 10° WNW 20:17:36 37° SW 20:18:01 36° SSW visible
11 Dec -3.7 19:25:48 10° NW 19:29:10 80° SW 19:32:30 10° SE visible
12 Dec -0.3 20:15:59 10° WSW 20:16:59 11° SW 20:18:00 10° SW visible
13 Dec -0.9 19:26:00 10° WNW 19:28:37 21° SW 19:31:14 10° S visible
